TimeMST,TemperatureF,Dew PointF,Humidity,Sea Level PressureIn,VisibilityMPH,Wind Direction,Wind SpeedMPH,Gust SpeedMPH,PrecipitationIn,Events,Conditions,WindDirDegrees,DateUTC
12:15 AM,15.8,8.6,73,30.16,10.0,NW,4.6,-,N/A,,Clear,320,2012-12-10 07:15:00
12:35 AM,15.8,8.6,73,30.16,10.0,WNW,5.8,-,N/A,,Clear,300,2012-12-10 07:35:00
12:55 AM,15.8,8.6,73,30.15,10.0,NW,6.9,-,N/A,,Clear,310,2012-12-10 07:55:00
1:15 AM,15.8,8.6,73,30.15,10.0,NW,6.9,-,N/A,,Clear,310,2012-12-10 08:15:00
1:55 AM,15.8,8.6,73,30.13,10.0,WNW,9.2,-,N/A,,Clear,300,2012-12-10 08:55:00
2:15 AM,15.8,8.6,73,30.12,10.0,NNW,6.9,-,N/A,,Clear,330,2012-12-10 09:15:00
2:35 AM,15.8,10.4,79,30.12,10.0,NNW,6.9,-,N/A,,Clear,340,2012-12-10 09:35:00
2:55 AM,15.8,8.6,73,30.12,10.0,NW,8.1,-,N/A,,Clear,310,2012-12-10 09:55:00
3:15 AM,15.8,8.6,73,30.12,10.0,NW,9.2,-,N/A,,Clear,320,2012-12-10 10:15:00
3:35 AM,15.8,8.6,73,30.10,10.0,NW,6.9,-,N/A,,Clear,310,2012-12-10 10:35:00
3:55 AM,15.8,8.6,73,30.09,10.0,NW,9.2,-,N/A,,Clear,310,2012-12-10 10:55:00
4:15 AM,15.8,8.6,73,30.09,10.0,NW,8.1,-,N/A,,Clear,310,2012-12-10 11:15:00
4:35 AM,15.8,8.6,73,30.09,10.0,NW,8.1,-,N/A,,Clear,320,2012-12-10 11:35:00
4:55 AM,15.8,8.6,73,30.09,10.0,NNW,6.9,-,N/A,,Clear,340,2012-12-10 11:55:00
5:15 AM,15.8,8.6,73,30.08,10.0,NNW,5.8,-,N/A,,Clear,330,2012-12-10 12:15:00
5:35 AM,15.8,8.6,73,30.08,10.0,NNW,5.8,-,N/A,,Clear,330,2012-12-10 12:35:00
5:55 AM,14.0,10.4,86,30.08,10.0,NNW,4.6,-,N/A,,Clear,330,2012-12-10 12:55:00
6:47 AM,14.0,8.6,79,30.07,10.0,WNW,6.9,-,N/A,,Clear,300,2012-12-10 13:47:00
7:47 AM,15.8,10.4,79,30.07,10.0,NNW,4.6,-,N/A,,Partly Cloudy,330,2012-12-10 14:47:00
8:50 AM,17.6,12.2,79,30.07,10.0,Calm,Calm,-,N/A,,Scattered Clouds,0,2012-12-10 15:50:00
9:47 AM,24.8,17.6,74,30.10,10.0,WNW,5.8,-,N/A,,Scattered Clouds,300,2012-12-10 16:47:00
10:47 AM,37.4,19.4,48,30.10,10.0,NW,9.2,-,N/A,,Partly Cloudy,310,2012-12-10 17:47:00
11:47 AM,39.2,12.2,33,30.09,10.0,WNW,17.3,24.2,N/A,,Partly Cloudy,290,2012-12-10 18:47:00
12:47 PM,41.0,10.4,29,30.08,10.0,NW,17.3,29.9,N/A,,Partly Cloudy,310,2012-12-10 19:47:00
1:50 PM,39.2,15.8,39,30.06,10.0,NW,9.2,-,N/A,,Partly Cloudy,320,2012-12-10 20:50:00
2:47 PM,41.0,12.2,31,30.04,10.0,WNW,13.8,25.3,N/A,,Partly Cloudy,290,2012-12-10 21:47:00
3:50 PM,39.2,12.2,33,30.44,10.0,WNW,12.7,21.9,N/A,,Partly Cloudy,290,2012-12-10 22:50:00
4:55 PM,37.4,14.0,38,30.05,10.0,NW,8.1,19.6,N/A,,Partly Cloudy,310,2012-12-10 23:55:00
5:47 PM,35.6,15.8,44,30.06,10.0,NW,4.6,-,N/A,,Partly Cloudy,320,2012-12-11 00:47:00
6:50 PM,32.0,17.6,55,30.06,10.0,NW,9.2,-,N/A,,Clear,310,2012-12-11 01:50:00
7:47 PM,32.0,17.6,55,30.06,10.0,NW,8.1,-,N/A,,Clear,320,2012-12-11 02:47:00
8:47 PM,30.2,17.6,60,30.05,10.0,Calm,Calm,-,N/A,,Clear,0,2012-12-11 03:47:00
9:47 PM,28.4,17.6,64,30.06,10.0,Calm,Calm,-,N/A,,Clear,0,2012-12-11 04:47:00
10:15 PM,26.6,19.4,74,30.05,10.0,South,3.5,-,N/A,,Clear,180,2012-12-11 05:15:00
10:35 PM,26.6,19.4,74,30.05,10.0,Calm,Calm,-,N/A,,Clear,0,2012-12-11 05:35:00
10:47 PM,24.8,17.6,74,30.05,10.0,Calm,Calm,-,N/A,,Clear,0,2012-12-11 05:47:00
10:55 PM,26.6,17.6,69,30.05,10.0,Calm,Calm,-,N/A,,Clear,0,2012-12-11 05:55:00
11:15 PM,24.8,19.4,80,30.05,10.0,Calm,Calm,-,N/A,,Clear,0,2012-12-11 06:15:00
11:35 PM,24.8,17.6,74,30.05,10.0,NNW,3.5,-,N/A,,Clear,330,2012-12-11 06:35:00
11:55 PM,24.8,17.6,74,30.05,10.0,NNW,4.6,-,N/A,,Clear,330,2012-12-11 06:55:00